Weather History for King Salmon, AK

Change the Weather History Date:

Tuesday, March 26, 2013

  Actual Average Record
Temperature  
Mean Temperature -5 °F 26 °F  
Max Temperature 8 °F 35 °F 76 °F (1997)
Min Temperature -18 °F 18 °F -18 °F (2013)
Degree Days  
Heating Degree Days 70 39  
Month to date heating degree days 1184 1077  
Since 1 July heating degree days 9039 8695  
Cooling Degree Days 0    
Month to date cooling degree days 0  
Year to date cooling degree days 0  
Moisture  
Dew Point -14 °F    
Average Humidity 0    
Maximum Humidity 0    
Minimum Humidity 0    
Precipitation  
Precipitation 0.00 in 0.02 in 0.36 in (1967)
Month to date precipitation 0.62 0.58  
Year to date precipitation 4.95 2.36  
Snow  
Snow 0.00 in 0.20 in 3.20 in (1967)
Month to date snowfall 11.1 5.5  
Since 1 July snowfall 73.5 41.0  
Snow Depth 4.00 in    
Sea Level Pressure  
Sea Level Pressure 30.15 in    
Wind  
Wind Speed 9 mph (NNE)    
Max Wind Speed 18 mph    
Max Gust Speed 24 mph    
Visibility 10 miles    
Events      
T = Trace of Precipitation, MM = Missing Value Source: NWS Daily Summary

Daily Weather History Graph

Daily Weather History Graph

Search for Another Location

Airport:

Trip Planner

Search our weather history database for the weather conditions in past years. The results will help you decide how hot, cold, wet, or windy it might be!

Date:

Astronomy

Mar. 26, 2013 Rise Set
Actual Time 8:09 AM AKDT 8:55 PM AKDT
Civil Twilight 7:29 AM AKDT 9:36 PM AKDT
Nautical Twilight 6:40 AM AKDT 10:26 PM AKDT
Astronomical Twilight 5:45 AM AKDT 11:21 PM AKDT
Moon 8:51 PM AKDT (3/26) 7:34 AM AKDT (3/26)
Length of Visible Light 14h 07m
Length of Day
12h 46m
Full, 100% of the Moon is Illuminated
Mar 26
Full
Mar 27
Full
Apr 2
Last Quarter
Apr 10
New
Apr 18
First Quarter

Hourly Weather History & Observations

Time (AKDT) Temp. Windchill Dew Point Humidity Pressure Visibility Wind Dir Wind Speed Gust Speed Precip Events Conditions
12:54 AM -11.9 °F -25.7 °F -17.0 °F 78% 30.09 in 10.0 mi NE 5.8 mph - N/A   Clear
1:54 AM -15.0 °F -31.0 °F -20.0 °F 78% 30.10 in 10.0 mi NE 6.9 mph - N/A   Clear
2:54 AM -15.0 °F -31.0 °F -20.9 °F 75% 30.11 in 10.0 mi NE 6.9 mph - N/A   Clear
3:54 AM -15.0 °F -32.4 °F -20.9 °F 75% 30.12 in 10.0 mi NNE 8.1 mph - N/A   Clear
4:54 AM -16.1 °F -26.2 °F -20.9 °F 79% 30.13 in 10.0 mi NE 3.5 mph - N/A   Clear
5:54 AM -17.0 °F - -22.0 °F 78% 30.14 in 10.0 mi Calm Calm - N/A   Clear
6:54 AM -16.1 °F - -23.1 °F 71% 30.14 in 10.0 mi Calm Calm - N/A   Clear
7:54 AM -18.0 °F - -24.0 °F 74% 30.14 in 10.0 mi Calm Calm - N/A   Clear
8:54 AM -16.1 °F -26.2 °F -22.0 °F 74% 30.15 in 10.0 mi North 3.5 mph - N/A   Clear
9:54 AM -9.0 °F -23.8 °F -18.0 °F 65% 30.16 in 10.0 mi North 6.9 mph - N/A   Clear
10:54 AM -0.9 °F -16.4 °F -15.0 °F 52% 30.17 in 10.0 mi North 9.2 mph - N/A   Clear
11:54 AM 1.0 °F -15.8 °F -14.1 °F 49% 30.17 in 10.0 mi NNE 11.5 mph - N/A   Clear
12:54 PM 3.0 °F -14.1 °F -13.0 °F 47% 30.18 in 10.0 mi NNE 12.7 mph - N/A   Clear
1:54 PM 3.0 °F -14.1 °F -11.0 °F 52% 30.19 in 10.0 mi North 12.7 mph - N/A   Clear
2:54 PM 3.9 °F -13.7 °F -9.0 °F 55% 30.18 in 10.0 mi North 13.8 mph - N/A   Clear
3:54 PM 6.1 °F -10.2 °F -8.0 °F 53% 30.18 in 10.0 mi North 12.7 mph - N/A   Clear
4:54 PM 7.0 °F -8.3 °F -7.1 °F 53% 30.17 in 10.0 mi North 11.5 mph - N/A   Clear
5:54 PM 8.1 °F -10.2 °F -5.1 °F 55% 30.16 in 10.0 mi North 17.3 mph - N/A   Partly Cloudy
6:54 PM 7.0 °F -11.0 °F -6.0 °F 55% 30.15 in 10.0 mi North 16.1 mph - N/A   Partly Cloudy
7:54 PM 5.0 °F -13.0 °F -6.0 °F 61% 30.14 in 10.0 mi North 15.0 mph - N/A   Partly Cloudy
8:54 PM 3.0 °F -14.1 °F -8.0 °F 60% 30.15 in 10.0 mi North 12.7 mph - N/A   Partly Cloudy
9:54 PM 1.9 °F -17.5 °F -8.0 °F 63% 30.15 in 10.0 mi North 16.1 mph - N/A   Scattered Clouds
10:54 PM 3.0 °F -14.1 °F -8.0 °F 60% 30.14 in 10.0 mi North 12.7 mph - N/A   Mostly Cloudy
11:54 PM 3.9 °F -9.4 °F -8.0 °F 58% 30.13 in 10.0 mi NNE 8.1 mph - N/A   Mostly Cloudy